GW1573 Weather Reports


Display with metric or nautical units.
time (UTC)temp
F
wind
direction
speed
MPH
gust
MPH
rain 1hr
in
rain 24hr
in
rain mn
in
humidity
%
barometer
mb
20260502130631 44 56 1.0 4.0 0.00 0.00 0.00 77 1017.9
20260502123635 40 78 0.0 0.0 0.00 0.00 0.00 99 1017.6
20260502122440 38 79 0.0 0.0 0.00 0.00 0.00 99 1017.6
20260502121222 37 94 0.0 0.0 0.00 0.00 0.00 99 1017.6
20260502120644 36 142 0.0 0.0 0.00 0.00 0.00 99 1017.6
20260502115451 35 88 0.0 0.0 0.00 0.00 0.00 99 1017.2
20260502114813 34 88 0.0 0.0 0.00 0.00 0.00 99 1017.6
20260502114232 34 88 0.0 0.0 0.00 0.00 0.00 99 1017.6
20260502113611 33 88 0.0 0.0 0.00 0.00 0.00 99 1017.2
20260502113039 32 88 0.0 0.0 0.00 0.00 0.00 99 1017.2
20260502112437 32 88 0.0 0.0 0.00 0.00 0.00 99 1017.2
20260502111828 32 88 0.0 0.0 0.00 0.00 0.00 99 1017.2
20260502111226 31 88 0.0 0.0 0.00 0.00 0.00 99 1017.2
20260502110017 31 88 0.0 0.0 0.00 0.00 0.00 99 1017.2
20260502105418 31 88 0.0 0.0 0.00 0.00 0.00 99 1017.2
20260502104829 31 88 0.0 0.0 0.00 0.00 0.00 99 1017.6
20260502104217 31 88 0.0 0.0 0.00 0.00 0.00 99 1017.2
20260502103635 31 88 0.0 0.0 0.00 0.00 0.00 99 1017.6
20260502103043 31 88 0.0 0.0 0.00 0.00 0.00 99 1017.6
20260502102419 31 88 0.0 0.0 0.00 0.00 0.00 99 1017.6
20260502101846 32 89 0.0 0.0 0.00 0.00 0.00 99 1017.6
20260502100630 32 89 0.0 0.0 0.00 0.00 0.00 99 1017.6
20260502091252 32 86 0.0 0.0 0.00 0.00 0.00 99 1017.6
20260502090624 32 87 0.0 0.0 0.00 0.00 0.00 99 1017.9
20260502071224 34 88 0.0 0.0 0.00 0.00 0.00 99 1016.9
20260502070652 34 87 0.0 0.0 0.00 0.00 0.00 99 1017.2
20260502070035 34 87 0.0 0.0 0.00 0.00 0.00 99 1017.2
20260502063651 35 88 0.0 0.0 0.00 0.00 0.00 99 1017.2
20260502063042 36 88 0.0 0.0 0.00 0.00 0.00 99 1017.6
20260502061814 37 90 0.0 0.0 0.00 0.00 0.00 99 1017.6
20260502061249 37 84 0.0 0.0 0.00 0.00 0.00 99 1017.9
20260502060622 38 84 0.0 0.0 0.00 0.00 0.00 99 1017.6
20260502060047 38 83 0.0 0.0 0.00 0.00 0.00 99 1017.9
20260502055448 38 83 0.0 0.0 0.00 0.00 0.00 99 1017.6
20260502054820 38 85 0.0 0.0 0.00 0.00 0.00 99 1017.9
20260502054250 38 85 0.0 0.0 0.00 0.00 0.00 99 1017.6
20260502053021 38 83 0.0 0.0 0.00 0.00 0.00 99 1017.9
20260502052415 37 84 0.0 0.0 0.00 0.00 0.00 99 1018.2
20260502051826 37 80 0.0 0.0 0.00 0.00 0.00 99 1018.2
20260502051220 37 138 0.0 0.0 0.00 0.00 0.00 99 1017.9
20260502050628 36 76 0.0 0.0 0.00 0.00 0.00 99 1017.9
20260502050039 35 88 0.0 0.0 0.00 0.00 0.00 99 1017.9
20260502045433 35 88 0.0 0.0 0.00 0.00 0.00 99 1017.9
20260502044838 35 88 0.0 0.0 0.00 0.00 0.00 99 1017.9
20260502043629 35 87 0.0 0.0 0.00 0.00 0.00 99 1017.9
20260502043043 35 87 0.0 0.0 0.00 0.00 0.00 99 1017.9
20260502042435 36 86 0.0 0.0 0.00 0.00 0.00 99 1017.9
20260502041810 36 86 0.0 0.0 0.00 0.00 0.00 99 1017.6
20260502041217 36 86 0.0 0.0 0.00 0.00 0.00 99 1017.6
20260502040649 36 88 0.0 0.0 0.00 0.00 0.00 99 1017.6
20260502040019 37 88 0.0 0.0 0.00 0.00 0.01 99 1017.9
20260502035442 37 89 0.0 0.0 0.00 0.00 0.01 99 1017.6
20260502034810 36 86 0.0 0.0 0.00 0.00 0.01 99 1017.6
20260502034246 35 86 0.0 0.0 0.00 0.00 0.01 98 1017.6
20260502033649 36 86 0.0 0.0 0.00 0.00 0.01 98 1017.6
20260502033012 36 85 0.0 0.0 0.00 0.00 0.01 97 1017.6
20260502032426 37 86 0.0 0.0 0.00 0.00 0.01 97 1017.9
20260502031841 37 85 0.0 0.0 0.00 0.00 0.01 97 1017.9
20260502031213 37 85 0.0 0.0 0.00 0.00 0.01 96 1017.9
20260502030616 37 86 0.0 0.0 0.00 0.00 0.01 96 1017.9
20260502030046 37 85 0.0 0.0 0.00 0.00 0.01 96 1017.9
20260502025414 37 87 0.0 0.0 0.00 0.00 0.01 95 1018.2
20260502024827 37 87 0.0 0.0 0.00 0.00 0.01 94 1017.9
20260502024219 38 87 0.0 0.0 0.00 0.00 0.01 93 1017.9
20260502023624 38 91 0.0 0.0 0.00 0.00 0.01 94 1017.9
20260502023047 38 85 0.0 0.0 0.00 0.00 0.01 92 1017.6
20260502022427 39 85 0.0 0.0 0.00 0.00 0.01 91 1017.6
20260502021812 40 89 0.0 0.0 0.00 0.00 0.01 91 1017.2
20260502021234 40 85 0.0 0.0 0.00 0.00 0.01 91 1017.2
20260502020614 40 80 0.0 0.0 0.00 0.00 0.01 90 1017.2
20260502020036 40 83 0.0 0.0 0.00 0.00 0.01 89 1017.2
20260502015431 41 79 0.0 0.0 0.00 0.00 0.01 86 1017.2
20260502014842 41 82 0.0 0.0 0.00 0.00 0.01 86 1017.2
20260502014227 41 83 0.0 0.0 0.00 0.00 0.01 86 1016.9
20260502013620 41 87 0.0 0.0 0.00 0.00 0.01 84 1016.9
20260502013036 41 154 0.0 1.0 0.00 0.00 0.01 85 1017.2
20260502012450 41 83 0.0 0.0 0.00 0.00 0.01 87 1016.5
20260502011841 41 89 0.0 0.0 0.00 0.00 0.01 86 1016.9
20260502011224 42 91 0.0 0.0 0.00 0.00 0.01 84 1016.5
20260502010625 42 95 0.0 0.0 0.00 0.00 0.01 84 1016.5
20260502010053 43 90 0.0 0.0 0.00 0.00 0.01 82 1016.2
20260502005446 44 87 0.0 0.0 0.00 0.00 0.01 80 1015.9
20260502004843 44 78 0.0 0.0 0.00 0.00 0.01 78 1015.9
20260502004227 45 79 0.0 0.0 0.00 0.00 0.01 75 1015.9
20260502003649 46 90 0.0 0.0 0.00 0.00 0.01 72 1015.9
20260502002449 47 96 1.0 1.0 0.00 0.00 0.01 69 1016.2
20260502001832 47 74 0.0 0.0 0.00 0.00 0.01 68 1015.9
20260502001246 47 80 1.0 1.0 0.00 0.00 0.01 68 1015.5
20260502000031 48 164 1.0 2.0 0.00 0.00 0.01 69 1015.2
20260501235453 48 62 2.0 4.0 0.00 0.00 0.01 66 1015.2
20260501234840 49 97 2.0 3.0 0.00 0.00 0.01 64 1015.2
20260501234253 49 92 3.0 3.0 0.00 0.00 0.01 63 1015.2
20260501233644 50 65 0.0 0.0 0.00 0.00 0.01 66 1015.2
20260501233024 50 79 1.0 1.0 0.00 0.00 0.01 66 1014.9
20260501232442 51 34 2.0 3.0 0.00 0.00 0.01 65 1014.9
20260501231817 52 37 4.0 4.0 0.00 0.00 0.01 62 1014.5
20260501231255 52 351 1.0 2.0 0.00 0.00 0.01 63 1014.9
20260501230650 52 125 1.0 2.0 0.00 0.00 0.01 64 1014.5
20260501230036 52 326 3.0 6.0 0.00 0.00 0.01 63 1014.5
20260501225415 52 110 1.0 2.0 0.00 0.00 0.01 63 1014.5
20260501224827 52 137 3.0 4.0 0.00 0.00 0.01 62 1014.5
20260501224233 52 319 4.0 7.0 0.00 0.00 0.01 63 1014.2
20260501223617 52 152 5.0 9.0 0.00 0.00 0.01 62 1014.2
20260501223053 52 165 2.0 2.0 0.00 0.00 0.01 62 1014.2
20260501222451 52 298 2.0 7.0 0.00 0.00 0.01 64 1014.2
20260501221839 52 222 4.0 6.0 0.00 0.00 0.01 67 1013.8
20260501221246 53 244 5.0 6.0 0.00 0.00 0.01 67 1013.8
20260501220645 53 74 2.0 4.0 0.00 0.00 0.01 72 1013.8
20260501220021 54 46 2.0 2.0 0.00 0.00 0.01 72 1013.8
20260501215415 53 291 2.0 2.0 0.00 0.00 0.01 72 1013.8
20260501214238 53 295 2.0 3.0 0.00 0.00 0.01 71 1013.8
20260501213041 53 24 3.0 3.0 0.00 0.00 0.01 71 1013.8
20260501211829 54 69 1.0 2.0 0.00 0.00 0.01 69 1013.5
20260501211210 53 16 2.0 3.0 0.00 0.00 0.01 70 1013.5
20260501210617 53 295 5.0 7.0 0.00 0.00 0.01 69 1013.5
20260501210030 55 89 1.0 2.0 0.00 0.00 0.01 71 1013.5
20260501205421 54 314 2.0 2.0 0.00 0.00 0.01 72 1013.5
20260501204849 52 226 3.0 4.0 0.00 0.00 0.01 77 1013.5
20260501203622 51 56 1.0 2.0 0.00 0.00 0.01 82 1013.5
20260501202444 50 240 2.0 2.0 0.00 0.00 0.01 82 1013.8
20260501201809 50 159 1.0 1.0 0.00 0.00 0.01 85 1013.8
20260501201239 50 208 2.0 3.0 0.00 0.00 0.01 85 1013.8
20260501200048 50 126 0.0 1.0 0.00 0.00 0.01 85 1013.8
20260501194853 50 193 2.0 2.0 0.00 0.00 0.01 83 1013.8
20260501194230 51 178 0.0 1.0 0.00 0.00 0.01 82 1013.8
20260501193623 51 199 3.0 4.0 0.00 0.00 0.01 80 1013.8
20260501193039 52 56 2.0 2.0 0.00 0.00 0.01 80 1013.8
20260501192423 52 332 3.0 6.0 0.00 0.00 0.01 78 1013.8
20260501191236 53 102 0.0 1.0 0.00 0.00 0.01 78 1013.8
20260501190646 54 319 3.0 4.0 0.00 0.00 0.01 73 1013.5
20260501190012 55 7 2.0 3.0 0.00 0.00 0.01 71 1013.5
20260501185428 55 89 1.0 2.0 0.00 0.00 0.01 70 1013.5
20260501184841 54 167 2.0 2.0 0.00 0.00 0.01 73 1013.5
20260501184223 54 66 0.0 0.0 0.00 0.00 0.01 81 1013.5
20260501183648 55 85 2.0 2.0 0.00 0.00 0.01 76 1013.5
20260501182421 54 314 1.0 2.0 0.00 0.00 0.01 72 1013.2
20260501181823 54 99 2.0 2.0 0.00 0.00 0.01 71 1013.2
20260501181238 54 172 4.0 7.0 0.00 0.00 0.00 66 1013.2
20260501180653 55 81 1.0 1.0 0.00 0.00 0.00 68 1012.8
20260501180037 56 259 5.0 7.0 0.00 0.00 0.00 62 1012.8
20260501172428 59 325 1.0 2.0 0.00 0.00 0.00 58 1012.8
20260501171232 58 168 3.0 7.0 0.00 0.00 0.00 54 1012.8
20260501170612 60 117 0.0 0.0 0.00 0.00 0.00 48 1012.8
20260501170023 59 128 0.0 0.0 0.00 0.00 0.00 51 1012.8
20260501164851 58 77 1.0 1.0 0.00 0.00 0.00 52 1012.8
20260501164237 58 234 1.0 1.0 0.00 0.00 0.00 55 1012.8
20260501163644 58 141 2.0 3.0 0.00 0.00 0.00 56 1012.8
20260501162426 58 178 4.0 4.0 0.00 0.00 0.00 51 1012.8
20260501160626 60 275 4.0 7.0 0.00 0.00 0.00 52 1013.2
20260501160022 58 233 3.0 4.0 0.00 0.00 0.00 54 1013.2
20260501155433 60 145 2.0 2.0 0.00 0.00 0.00 53 1013.5
20260501154235 57 243 3.0 4.0 0.00 0.00 0.00 58 1013.2
20260501153032 57 349 5.0 6.0 0.00 0.00 0.00 55 1013.5
20260501152413 57 181 2.0 2.0 0.00 0.00 0.00 58 1013.5
20260501151832 57 137 2.0 2.0 0.00 0.00 0.00 58 1013.5
20260501145452 55 213 3.0 3.0 0.00 0.00 0.00 65 1013.5
20260501144210 54 102 3.0 4.0 0.00 0.00 0.00 68 1013.5
20260501143622 54 92 0.0 1.0 0.00 0.00 0.00 66 1013.8
20260501143020 54 179 4.0 4.0 0.00 0.00 0.00 65 1013.8